| time (UTC) | temp F | wind direction | speed MPH | gust MPH | rain 1hr in | rain 24hr in | rain mn in | humidity % | barometer mb |
| 20260510204045 | 67 | 29 | 0.0 | 0.0 | 0.00 | 0.00 | 0.00 | 34 | 1022.6 |
| 20260510203542 | 67 | 20 | 6.0 | 7.0 | 0.00 | 0.00 | 0.00 | 33 | 1023.0 |
| 20260510203039 | 66 | 346 | 6.0 | 8.0 | 0.00 | 0.00 | 0.00 | 33 | 1022.6 |
| 20260510202538 | 65 | 30 | 5.0 | 7.0 | 0.00 | 0.00 | 0.00 | 34 | 1022.7 |
| 20260510202034 | 66 | 355 | 5.0 | 7.0 | 0.00 | 0.00 | 0.00 | 33 | 1022.7 |
| 20260510201532 | 66 | 0 | 7.0 | 9.0 | 0.00 | 0.00 | 0.00 | 34 | 1022.7 |
| 20260510201028 | 66 | 43 | 2.0 | 4.0 | 0.00 | 0.00 | 0.00 | 34 | 1022.9 |
| 20260510200524 | 66 | 4 | 5.0 | 9.0 | 0.00 | 0.00 | 0.00 | 35 | 1023.1 |
| 20260510200022 | 65 | 358 | 5.0 | 7.0 | 0.00 | 0.00 | 0.00 | 35 | 1022.7 |
| 20260510195520 | 65 | 358 | 3.0 | 3.0 | 0.00 | 0.00 | 0.00 | 36 | 1022.7 |
| 20260510195015 | 65 | 25 | 4.0 | 6.0 | 0.00 | 0.00 | 0.00 | 34 | 1022.9 |
| 20260510194511 | 65 | 21 | 6.0 | 8.0 | 0.00 | 0.00 | 0.00 | 32 | 1023.1 |
| 20260510194006 | 65 | 16 | 7.0 | 10.0 | 0.00 | 0.00 | 0.00 | 32 | 1023.1 |
| 20260510193501 | 65 | 336 | 3.0 | 3.0 | 0.00 | 0.00 | 0.00 | 38 | 1023.3 |
| 20260510192957 | 65 | 46 | 2.0 | 3.0 | 0.00 | 0.00 | 0.00 | 33 | 1023.5 |
| 20260510192452 | 65 | 55 | 4.0 | 4.0 | 0.00 | 0.00 | 0.00 | 32 | 1023.2 |
| 20260510191948 | 66 | 3 | 6.0 | 9.0 | 0.00 | 0.00 | 0.00 | 34 | 1023.3 |
| 20260510191444 | 65 | 17 | 2.0 | 2.0 | 0.00 | 0.00 | 0.00 | 34 | 1023.3 |
| 20260510190942 | 65 | 1 | 5.0 | 6.0 | 0.00 | 0.00 | 0.00 | 35 | 1023.4 |
| 20260510190439 | 65 | 356 | 6.0 | 8.0 | 0.00 | 0.00 | 0.00 | 34 | 1023.3 |
| 20260510185936 | 65 | 350 | 5.0 | 7.0 | 0.00 | 0.00 | 0.00 | 33 | 1023.1 |
| 20260510185433 | 65 | 73 | 5.0 | 8.0 | 0.00 | 0.00 | 0.00 | 33 | 1023.1 |
| 20260510184930 | 65 | 350 | 3.0 | 3.0 | 0.00 | 0.00 | 0.00 | 35 | 1023.1 |
| 20260510184428 | 65 | 60 | 3.0 | 3.0 | 0.00 | 0.00 | 0.00 | 33 | 1023.1 |
| 20260510183926 | 65 | 49 | 2.0 | 3.0 | 0.00 | 0.00 | 0.00 | 35 | 1023.2 |
| 20260510183424 | 65 | 19 | 3.0 | 3.0 | 0.00 | 0.00 | 0.00 | 36 | 1023.1 |
| 20260510182919 | 65 | 38 | 6.0 | 7.0 | 0.00 | 0.00 | 0.00 | 34 | 1023.0 |
| 20260510182415 | 65 | 55 | 2.0 | 3.0 | 0.00 | 0.00 | 0.00 | 34 | 1023.1 |
| 20260510181911 | 64 | 39 | 4.0 | 4.0 | 0.00 | 0.00 | 0.00 | 35 | 1023.2 |
| 20260510181409 | 65 | 82 | 1.0 | 1.0 | 0.00 | 0.00 | 0.00 | 35 | 1023.1 |
| 20260510180905 | 64 | 4 | 6.0 | 7.0 | 0.00 | 0.00 | 0.00 | 34 | 1023.2 |
| 20260510180402 | 64 | 18 | 7.0 | 8.0 | 0.00 | 0.00 | 0.00 | 34 | 1023.3 |
| 20260510175859 | 65 | 65 | 2.0 | 3.0 | 0.00 | 0.00 | 0.00 | 36 | 1023.5 |
| 20260510175355 | 64 | 76 | 4.0 | 4.0 | 0.00 | 0.00 | 0.00 | 34 | 1023.4 |
| 20260510174850 | 64 | 301 | 5.0 | 6.0 | 0.00 | 0.00 | 0.00 | 34 | 1023.5 |
| 20260510174349 | 64 | 8 | 4.0 | 4.0 | 0.00 | 0.00 | 0.00 | 34 | 1023.6 |
| 20260510173844 | 64 | 348 | 5.0 | 7.0 | 0.00 | 0.00 | 0.00 | 36 | 1023.3 |
| 20260510173340 | 64 | 353 | 7.0 | 8.0 | 0.00 | 0.00 | 0.00 | 33 | 1023.4 |
| 20260510172837 | 64 | 52 | 1.0 | 2.0 | 0.00 | 0.00 | 0.00 | 34 | 1023.3 |
| 20260510172333 | 65 | 359 | 1.0 | 2.0 | 0.00 | 0.00 | 0.00 | 35 | 1023.1 |
| 20260510171829 | 64 | 19 | 4.0 | 6.0 | 0.00 | 0.00 | 0.00 | 36 | 1023.1 |
| 20260510171326 | 64 | 75 | 0.0 | 1.0 | 0.00 | 0.00 | 0.00 | 38 | 1023.1 |
| 20260510170824 | 64 | 350 | 5.0 | 7.0 | 0.00 | 0.00 | 0.00 | 33 | 1023.5 |
| 20260510170319 | 64 | 32 | 7.0 | 10.0 | 0.00 | 0.00 | 0.00 | 35 | 1023.3 |
| 20260510165814 | 65 | 101 | 0.0 | 1.0 | 0.00 | 0.00 | 0.00 | 36 | 1023.1 |
| 20260510165312 | 64 | 82 | 3.0 | 4.0 | 0.00 | 0.00 | 0.00 | 34 | 1023.2 |
| 20260510164809 | 64 | 22 | 6.0 | 8.0 | 0.00 | 0.00 | 0.00 | 35 | 1022.8 |
| 20260510164307 | 64 | 359 | 6.0 | 8.0 | 0.00 | 0.00 | 0.00 | 35 | 1023.1 |
| 20260510163801 | 63 | 354 | 5.0 | 6.0 | 0.00 | 0.00 | 0.00 | 38 | 1022.8 |
| 20260510163257 | 63 | 92 | 3.0 | 3.0 | 0.00 | 0.00 | 0.00 | 39 | 1022.8 |
| 20260510162756 | 63 | 20 | 4.0 | 6.0 | 0.00 | 0.00 | 0.00 | 37 | 1023.0 |
| 20260510162254 | 61 | 52 | 5.0 | 7.0 | 0.00 | 0.00 | 0.00 | 38 | 1023.1 |
| 20260510161749 | 61 | 2 | 9.0 | 9.0 | 0.00 | 0.00 | 0.00 | 38 | 1022.8 |
| 20260510161245 | 62 | 1 | 7.0 | 8.0 | 0.00 | 0.00 | 0.00 | 38 | 1022.9 |
| 20260510160743 | 62 | 344 | 8.0 | 10.0 | 0.00 | 0.00 | 0.00 | 37 | 1023.1 |
| 20260510160239 | 62 | 48 | 6.0 | 8.0 | 0.00 | 0.00 | 0.00 | 38 | 1023.1 |
| 20260510155735 | 62 | 11 | 5.0 | 6.0 | 0.00 | 0.00 | 0.00 | 38 | 1023.0 |
| 20260510155230 | 61 | 50 | 3.0 | 4.0 | 0.00 | 0.00 | 0.00 | 39 | 1022.9 |
| 20260510154727 | 62 | 64 | 1.0 | 2.0 | 0.00 | 0.00 | 0.00 | 41 | 1023.1 |
| 20260510154223 | 61 | 14 | 2.0 | 3.0 | 0.00 | 0.00 | 0.00 | 39 | 1023.1 |
| 20260510153718 | 61 | 165 | 3.0 | 3.0 | 0.00 | 0.00 | 0.00 | 39 | 1022.9 |
| 20260510153214 | 61 | 82 | 3.0 | 3.0 | 0.00 | 0.00 | 0.00 | 39 | 1023.0 |
| 20260510152711 | 62 | 40 | 3.0 | 6.0 | 0.00 | 0.00 | 0.00 | 40 | 1023.2 |
| 20260510152207 | 61 | 51 | 2.0 | 3.0 | 0.00 | 0.00 | 0.00 | 38 | 1022.7 |
| 20260510151704 | 61 | 43 | 6.0 | 8.0 | 0.00 | 0.00 | 0.00 | 38 | 1022.5 |
| 20260510151202 | 61 | 57 | 3.0 | 4.0 | 0.00 | 0.00 | 0.00 | 40 | 1022.6 |
| 20260510150658 | 60 | 85 | 3.0 | 4.0 | 0.00 | 0.00 | 0.00 | 39 | 1022.5 |
| 20260510150153 | 60 | 58 | 4.0 | 6.0 | 0.00 | 0.00 | 0.00 | 39 | 1022.2 |
| 20260510145649 | 61 | 80 | 4.0 | 6.0 | 0.00 | 0.00 | 0.00 | 40 | 1022.4 |
| 20260510145146 | 60 | 68 | 3.0 | 3.0 | 0.00 | 0.00 | 0.00 | 43 | 1022.4 |
| 20260510144642 | 60 | 31 | 3.0 | 4.0 | 0.00 | 0.00 | 0.00 | 40 | 1022.5 |
| 20260510144138 | 60 | 64 | 3.0 | 6.0 | 0.00 | 0.00 | 0.00 | 41 | 1022.5 |
| 20260510143634 | 59 | 43 | 3.0 | 3.0 | 0.00 | 0.00 | 0.00 | 44 | 1022.3 |
| 20260510143131 | 59 | 27 | 2.0 | 3.0 | 0.00 | 0.00 | 0.00 | 43 | 1022.5 |
| 20260510142627 | 58 | 60 | 1.0 | 2.0 | 0.00 | 0.00 | 0.00 | 42 | 1022.6 |
| 20260510142123 | 58 | 73 | 3.0 | 6.0 | 0.00 | 0.00 | 0.00 | 43 | 1022.4 |
| 20260510141620 | 58 | 41 | 2.0 | 2.0 | 0.00 | 0.00 | 0.00 | 45 | 1022.4 |
| 20260510141119 | 57 | 34 | 3.0 | 3.0 | 0.00 | 0.00 | 0.00 | 44 | 1022.6 |
| 20260510140615 | 57 | 90 | 4.0 | 4.0 | 0.00 | 0.00 | 0.00 | 43 | 1022.6 |
| 20260510140114 | 58 | 71 | 4.0 | 9.0 | 0.00 | 0.00 | 0.00 | 42 | 1022.5 |
| 20260510135610 | 58 | 146 | 2.0 | 2.0 | 0.00 | 0.00 | 0.00 | 43 | 1022.4 |
| 20260510135106 | 58 | 60 | 4.0 | 4.0 | 0.00 | 0.00 | 0.00 | 42 | 1022.4 |
| 20260510134603 | 59 | 150 | 1.0 | 3.0 | 0.00 | 0.00 | 0.00 | 42 | 1022.4 |
| 20260510134100 | 58 | 48 | 1.0 | 2.0 | 0.00 | 0.00 | 0.00 | 45 | 1022.3 |
| 20260510133556 | 57 | 18 | 2.0 | 2.0 | 0.00 | 0.00 | 0.00 | 43 | 1022.1 |
| 20260510133052 | 57 | 41 | 3.0 | 3.0 | 0.00 | 0.00 | 0.00 | 43 | 1022.4 |
| 20260510132549 | 57 | 39 | 3.0 | 4.0 | 0.00 | 0.00 | 0.00 | 45 | 1022.2 |
| 20260510132046 | 57 | 47 | 1.0 | 3.0 | 0.00 | 0.00 | 0.00 | 47 | 1022.2 |
| 20260510131544 | 56 | 71 | 4.0 | 8.0 | 0.00 | 0.00 | 0.00 | 46 | 1022.1 |
| 20260510131041 | 56 | 359 | 3.0 | 6.0 | 0.00 | 0.00 | 0.00 | 47 | 1021.8 |
| 20260510130537 | 56 | 1 | 4.0 | 6.0 | 0.00 | 0.00 | 0.00 | 46 | 1022.0 |
| 20260510130035 | 56 | 337 | 1.0 | 2.0 | 0.00 | 0.00 | 0.00 | 46 | 1021.8 |
| 20260510125530 | 57 | 7 | 4.0 | 4.0 | 0.00 | 0.00 | 0.00 | 44 | 1021.8 |
| 20260510125027 | 57 | 31 | 4.0 | 4.0 | 0.00 | 0.00 | 0.00 | 43 | 1021.4 |
| 20260510124524 | 56 | 34 | 7.0 | 9.0 | 0.00 | 0.00 | 0.00 | 42 | 1021.6 |
| 20260510124021 | 56 | 17 | 3.0 | 3.0 | 0.00 | 0.00 | 0.00 | 44 | 1021.2 |
| 20260510123516 | 56 | 78 | 3.0 | 3.0 | 0.00 | 0.00 | 0.00 | 45 | 1021.2 |
| 20260510123012 | 56 | 357 | 1.0 | 1.0 | 0.00 | 0.00 | 0.00 | 46 | 1021.2 |
| 20260510122509 | 56 | 25 | 4.0 | 7.0 | 0.00 | 0.00 | 0.00 | 44 | 1020.9 |
| 20260510122004 | 56 | 25 | 3.0 | 4.0 | 0.00 | 0.00 | 0.00 | 44 | 1020.9 |
| 20260510121502 | 56 | 29 | 5.0 | 6.0 | 0.00 | 0.00 | 0.00 | 44 | 1020.8 |
| 20260510120959 | 57 | 66 | 3.0 | 4.0 | 0.00 | 0.00 | 0.00 | 44 | 1020.6 |
| 20260510120456 | 57 | 64 | 4.0 | 6.0 | 0.00 | 0.00 | 0.00 | 45 | 1020.5 |
| 20260510115952 | 56 | 354 | 3.0 | 3.0 | 0.00 | 0.00 | 0.00 | 45 | 1020.2 |
| 20260510115449 | 56 | 344 | 1.0 | 1.0 | 0.00 | 0.00 | 0.00 | 46 | 1019.9 |
| 20260510114945 | 56 | 35 | 4.0 | 4.0 | 0.00 | 0.00 | 0.00 | 44 | 1020.0 |
| 20260510114442 | 56 | 28 | 4.0 | 6.0 | 0.00 | 0.00 | 0.00 | 44 | 1019.8 |
| 20260510113938 | 56 | 3 | 2.0 | 2.0 | 0.00 | 0.00 | 0.00 | 44 | 1019.8 |
| 20260510113433 | 56 | 53 | 4.0 | 6.0 | 0.00 | 0.00 | 0.00 | 45 | 1019.8 |
| 20260510112931 | 56 | 53 | 2.0 | 2.0 | 0.00 | 0.00 | 0.00 | 45 | 1019.6 |
| 20260510112428 | 56 | 337 | 5.0 | 9.0 | 0.00 | 0.00 | 0.00 | 45 | 1019.7 |
| 20260510111924 | 57 | 16 | 4.0 | 6.0 | 0.00 | 0.00 | 0.00 | 45 | 1019.6 |
| 20260510111420 | 57 | 52 | 2.0 | 4.0 | 0.00 | 0.00 | 0.00 | 45 | 1019.5 |
| 20260510110916 | 57 | 354 | 4.0 | 6.0 | 0.00 | 0.00 | 0.00 | 45 | 1019.4 |
| 20260510110413 | 57 | 43 | 4.0 | 7.0 | 0.00 | 0.00 | 0.00 | 45 | 1019.2 |
| 20260510105908 | 57 | 21 | 3.0 | 6.0 | 0.00 | 0.00 | 0.00 | 45 | 1019.4 |
| 20260510105403 | 57 | 41 | 3.0 | 4.0 | 0.00 | 0.00 | 0.00 | 46 | 1019.4 |
| 20260510104859 | 58 | 3 | 5.0 | 9.0 | 0.00 | 0.00 | 0.00 | 47 | 1019.6 |
| 20260510104356 | 58 | 36 | 2.0 | 2.0 | 0.00 | 0.00 | 0.00 | 46 | 1019.3 |
| 20260510103852 | 58 | 21 | 2.0 | 2.0 | 0.00 | 0.00 | 0.00 | 47 | 1019.3 |
| 20260510103350 | 58 | 46 | 9.0 | 13.0 | 0.00 | 0.00 | 0.00 | 47 | 1019.3 |
| 20260510102845 | 58 | 346 | 2.0 | 2.0 | 0.00 | 0.00 | 0.00 | 49 | 1019.2 |
| 20260510102341 | 58 | 349 | 4.0 | 4.0 | 0.00 | 0.00 | 0.00 | 51 | 1019.0 |
| 20260510101838 | 59 | 15 | 4.0 | 6.0 | 0.00 | 0.00 | 0.00 | 51 | 1019.0 |
| 20260510101336 | 59 | 350 | 2.0 | 2.0 | 0.00 | 0.00 | 0.00 | 51 | 1018.8 |
| 20260510100832 | 59 | 359 | 3.0 | 4.0 | 0.00 | 0.00 | 0.00 | 50 | 1018.5 |
| 20260510100330 | 59 | 21 | 5.0 | 9.0 | 0.00 | 0.00 | 0.00 | 50 | 1018.5 |
| 20260510095826 | 59 | 332 | 2.0 | 2.0 | 0.00 | 0.00 | 0.00 | 49 | 1018.5 |
| 20260510095321 | 59 | 356 | 2.0 | 3.0 | 0.00 | 0.00 | 0.00 | 47 | 1018.5 |
| 20260510094815 | 59 | 55 | 3.0 | 3.0 | 0.00 | 0.00 | 0.00 | 46 | 1018.2 |
| 20260510094310 | 60 | 47 | 6.0 | 7.0 | 0.00 | 0.00 | 0.00 | 46 | 1018.0 |
| 20260510093807 | 60 | 43 | 5.0 | 7.0 | 0.00 | 0.00 | 0.00 | 47 | 1018.2 |
| 20260510093303 | 60 | 38 | 2.0 | 2.0 | 0.00 | 0.00 | 0.00 | 48 | 1018.3 |
| 20260510092800 | 60 | 60 | 2.0 | 3.0 | 0.00 | 0.00 | 0.00 | 48 | 1018.2 |
| 20260510092255 | 60 | 47 | 6.0 | 7.0 | 0.00 | 0.00 | 0.00 | 48 | 1018.1 |
| 20260510091751 | 60 | 97 | 2.0 | 3.0 | 0.00 | 0.00 | 0.00 | 48 | 1018.1 |
| 20260510091248 | 60 | 74 | 3.0 | 4.0 | 0.00 | 0.00 | 0.00 | 48 | 1017.9 |
| 20260510090745 | 60 | 22 | 2.0 | 2.0 | 0.00 | 0.00 | 0.00 | 48 | 1018.1 |
| 20260510090242 | 60 | 47 | 8.0 | 8.0 | 0.00 | 0.00 | 0.00 | 49 | 1017.9 |
| 20260510085737 | 60 | 62 | 2.0 | 3.0 | 0.00 | 0.00 | 0.00 | 51 | 1017.9 |
| 20260510085232 | 60 | 59 | 2.0 | 3.0 | 0.00 | 0.00 | 0.00 | 52 | 1017.7 |
| 20260510084728 | 60 | 2 | 2.0 | 2.0 | 0.00 | 0.00 | 0.00 | 53 | 1017.6 |
| 20260510084225 | 60 | 6 | 8.0 | 9.0 | 0.00 | 0.00 | 0.00 | 52 | 1017.8 |
| 20260510083722 | 60 | 39 | 7.0 | 8.0 | 0.00 | 0.00 | 0.00 | 53 | 1017.4 |
| 20260510083219 | 60 | 84 | 4.0 | 6.0 | 0.00 | 0.00 | 0.00 | 55 | 1017.3 |
| 20260510082714 | 60 | 30 | 5.0 | 6.0 | 0.00 | 0.00 | 0.00 | 56 | 1017.2 |
| 20260510082212 | 61 | 34 | 4.0 | 6.0 | 0.00 | 0.00 | 0.00 | 56 | 1017.3 |
| 20260510081710 | 61 | 27 | 3.0 | 3.0 | 0.00 | 0.00 | 0.00 | 57 | 1017.1 |
| 20260510081207 | 60 | 339 | 4.0 | 6.0 | 0.00 | 0.00 | 0.00 | 59 | 1017.2 |
| 20260510080701 | 61 | 351 | 6.0 | 8.0 | 0.00 | 0.00 | 0.00 | 61 | 1017.2 |
| 20260510080158 | 61 | 13 | 4.0 | 4.0 | 0.00 | 0.00 | 0.00 | 61 | 1017.2 |
| 20260510075654 | 61 | 34 | 1.0 | 2.0 | 0.00 | 0.00 | 0.00 | 63 | 1016.5 |
| 20260510075153 | 61 | 350 | 1.0 | 1.0 | 0.00 | 0.00 | 0.00 | 62 | 1016.6 |
| 20260510074649 | 62 | 43 | 4.0 | 7.0 | 0.00 | 0.00 | 0.00 | 61 | 1016.9 |
| 20260510074145 | 62 | 35 | 4.0 | 7.0 | 0.00 | 0.00 | 0.00 | 61 | 1017.0 |
| 20260510073642 | 62 | 20 | 4.0 | 4.0 | 0.00 | 0.00 | 0.00 | 62 | 1017.1 |
| 20260510073137 | 62 | 22 | 3.0 | 3.0 | 0.00 | 0.00 | 0.00 | 61 | 1017.0 |
| 20260510072628 | 62 | 25 | 2.0 | 2.0 | 0.00 | 0.00 | 0.00 | 61 | 1016.7 |
| 20260510072125 | 61 | 42 | 2.0 | 4.0 | 0.00 | 0.00 | 0.00 | 60 | 1016.6 |
| 20260510071620 | 61 | 359 | 1.0 | 2.0 | 0.00 | 0.00 | 0.00 | 63 | 1016.7 |
| 20260510071118 | 61 | 66 | 0.0 | 0.0 | 0.00 | 0.00 | 0.00 | 61 | 1016.4 |
| 20260510070615 | 61 | 75 | 0.0 | 1.0 | 0.00 | 0.00 | 0.00 | 61 | 1016.3 |
| 20260510070113 | 62 | 48 | 0.0 | 1.0 | 0.00 | 0.00 | 0.00 | 60 | 1016.4 |
| 20260510065608 | 61 | 75 | 0.0 | 0.0 | 0.00 | 0.00 | 0.00 | 60 | 1016.5 |
| 20260510065104 | 62 | 83 | 0.0 | 0.0 | 0.00 | 0.00 | 0.00 | 61 | 1016.3 |
| 20260510064555 | 62 | 56 | 0.0 | 1.0 | 0.00 | 0.00 | 0.00 | 59 | 1016.2 |
| 20260510064052 | 62 | 82 | 3.0 | 3.0 | 0.00 | 0.00 | 0.00 | 59 | 1016.3 |
| 20260510063550 | 62 | 25 | 1.0 | 1.0 | 0.00 | 0.00 | 0.00 | 60 | 1016.2 |
| 20260510063046 | 63 | 2 | 2.0 | 2.0 | 0.00 | 0.00 | 0.00 | 59 | 1016.2 |
| 20260510062542 | 63 | 15 | 2.0 | 2.0 | 0.00 | 0.00 | 0.00 | 57 | 1016.1 |
| 20260510062037 | 64 | 35 | 1.0 | 2.0 | 0.00 | 0.00 | 0.00 | 55 | 1015.8 |
| 20260510061534 | 63 | 49 | 1.0 | 1.0 | 0.00 | 0.00 | 0.00 | 56 | 1015.9 |
| 20260510061031 | 63 | 135 | 0.0 | 0.0 | 0.00 | 0.00 | 0.00 | 58 | 1015.7 |
| 20260510060527 | 64 | 116 | 0.0 | 0.0 | 0.00 | 0.00 | 0.00 | 57 | 1016.0 |
| 20260510060023 | 65 | 116 | 0.0 | 0.0 | 0.00 | 0.00 | 0.00 | 55 | 1015.8 |
| 20260510055520 | 65 | 73 | 1.0 | 1.0 | 0.00 | 0.00 | 0.00 | 54 | 1015.9 |
| 20260510055018 | 65 | 56 | 1.0 | 1.0 | 0.00 | 0.00 | 0.00 | 54 | 1016.0 |
| 20260510054514 | 66 | 139 | 0.0 | 0.0 | 0.00 | 0.00 | 0.00 | 54 | 1015.8 |
| 20260510054009 | 66 | 57 | 2.0 | 3.0 | 0.00 | 0.00 | 0.00 | 53 | 1015.6 |
| 20260510053503 | 65 | 12 | 1.0 | 1.0 | 0.00 | 0.00 | 0.00 | 57 | 1015.9 |
| 20260510053001 | 65 | 61 | 1.0 | 2.0 | 0.00 | 0.00 | 0.00 | 55 | 1016.0 |
| 20260510052457 | 65 | 172 | 3.0 | 4.0 | 0.00 | 0.00 | 0.00 | 58 | 1015.7 |
| 20260510051953 | 65 | 12 | 1.0 | 2.0 | 0.00 | 0.00 | 0.00 | 57 | 1016.0 |
| 20260510051448 | 66 | 158 | 0.0 | 0.0 | 0.00 | 0.00 | 0.00 | 56 | 1015.7 |
| 20260510050945 | 66 | 175 | 2.0 | 2.0 | 0.00 | 0.00 | 0.00 | 57 | 1015.6 |
| 20260510050443 | 66 | 179 | 4.0 | 4.0 | 0.00 | 0.00 | 0.00 | 55 | 1015.3 |
| 20260510045939 | 67 | 55 | 0.0 | 1.0 | 0.00 | 0.00 | 0.00 | 54 | 1014.9 |
| 20260510045436 | 67 | 8 | 4.0 | 6.0 | 0.00 | 0.00 | 0.00 | 54 | 1014.6 |
| 20260510044933 | 67 | 20 | 2.0 | 2.0 | 0.00 | 0.00 | 0.00 | 55 | 1014.5 |
| 20260510044430 | 67 | 1 | 5.0 | 8.0 | 0.00 | 0.00 | 0.00 | 55 | 1014.2 |
| 20260510043927 | 67 | 346 | 6.0 | 6.0 | 0.00 | 0.00 | 0.00 | 55 | 1014.3 |
| 20260510043423 | 68 | 350 | 4.0 | 6.0 | 0.00 | 0.00 | 0.00 | 55 | 1014.1 |
| 20260510042921 | 67 | 344 | 4.0 | 6.0 | 0.00 | 0.00 | 0.00 | 55 | 1014.0 |
| 20260510042417 | 67 | 330 | 2.0 | 3.0 | 0.00 | 0.00 | 0.00 | 56 | 1013.8 |
| 20260510041913 | 67 | 343 | 1.0 | 2.0 | 0.00 | 0.00 | 0.00 | 56 | 1013.8 |
| 20260510041410 | 67 | 359 | 3.0 | 3.0 | 0.00 | 0.00 | 0.00 | 57 | 1013.7 |
| 20260510040908 | 67 | 34 | 0.0 | 0.0 | 0.00 | 0.00 | 0.00 | 57 | 1013.6 |
| 20260510040404 | 67 | 34 | 0.0 | 1.0 | 0.00 | 0.00 | 0.00 | 57 | 1013.4 |
| 20260510035900 | 67 | 44 | 0.0 | 0.0 | 0.00 | 0.00 | 0.00 | 57 | 1013.4 |
| 20260510035356 | 67 | 47 | 0.0 | 0.0 | 0.00 | 0.00 | 0.00 | 57 | 1013.1 |
| 20260510034851 | 67 | 46 | 0.0 | 0.0 | 0.00 | 0.00 | 0.00 | 57 | 1013.4 |
| 20260510034350 | 67 | 45 | 0.0 | 0.0 | 0.00 | 0.00 | 0.00 | 57 | 1013.0 |
| 20260510033846 | 68 | 60 | 0.0 | 0.0 | 0.00 | 0.00 | 0.00 | 56 | 1013.2 |
| 20260510033343 | 68 | 116 | 0.0 | 1.0 | 0.00 | 0.00 | 0.00 | 55 | 1013.2 |
| 20260510032839 | 69 | 31 | 2.0 | 2.0 | 0.00 | 0.00 | 0.00 | 53 | 1013.2 |
| 20260510032336 | 68 | 79 | 0.0 | 1.0 | 0.00 | 0.00 | 0.00 | 57 | 1012.9 |
| 20260510031831 | 68 | 38 | 0.0 | 1.0 | 0.00 | 0.00 | 0.00 | 56 | 1013.2 |
| 20260510031326 | 67 | 38 | 0.0 | 0.0 | 0.00 | 0.00 | 0.00 | 59 | 1012.8 |
| 20260510030821 | 67 | 148 | 0.0 | 0.0 | 0.00 | 0.00 | 0.00 | 61 | 1012.8 |
| 20260510030317 | 68 | 149 | 1.0 | 1.0 | 0.00 | 0.00 | 0.00 | 56 | 1012.9 |
| 20260510025815 | 67 | 181 | 0.0 | 0.0 | 0.00 | 0.00 | 0.00 | 59 | 1013.0 |
| 20260510025313 | 67 | 212 | 0.0 | 0.0 | 0.00 | 0.00 | 0.00 | 56 | 1013.1 |
| 20260510024809 | 68 | 212 | 0.0 | 0.0 | 0.00 | 0.00 | 0.00 | 56 | 1013.5 |
| 20260510024306 | 68 | 241 | 1.0 | 1.0 | 0.00 | 0.00 | 0.00 | 56 | 1013.4 |
| 20260510023802 | 68 | 301 | 1.0 | 1.0 | 0.00 | 0.00 | 0.00 | 54 | 1013.2 |
| 20260510023258 | 68 | 297 | 1.0 | 2.0 | 0.00 | 0.00 | 0.00 | 55 | 1012.9 |
| 20260510022756 | 68 | 294 | 1.0 | 1.0 | 0.00 | 0.00 | 0.00 | 55 | 1012.8 |
| 20260510022255 | 68 | 91 | 0.0 | 0.0 | 0.00 | 0.00 | 0.00 | 54 | 1012.5 |
| 20260510021754 | 69 | 92 | 0.0 | 0.0 | 0.00 | 0.00 | 0.00 | 53 | 1012.2 |
| 20260510021253 | 69 | 48 | 1.0 | 2.0 | 0.00 | 0.00 | 0.00 | 52 | 1012.2 |
| 20260510020748 | 70 | 66 | 1.0 | 2.0 | 0.00 | 0.00 | 0.00 | 52 | 1011.9 |
| 20260510020243 | 70 | 11 | 2.0 | 2.0 | 0.00 | 0.00 | 0.00 | 51 | 1011.6 |
| 20260510015739 | 70 | 356 | 3.0 | 4.0 | 0.00 | 0.00 | 0.00 | 50 | 1011.9 |
| 20260510015236 | 70 | 30 | 4.0 | 4.0 | 0.00 | 0.00 | 0.00 | 50 | 1011.7 |
| 20260510014731 | 71 | 72 | 3.0 | 4.0 | 0.00 | 0.00 | 0.00 | 50 | 1011.3 |
| 20260510014228 | 71 | 54 | 5.0 | 6.0 | 0.00 | 0.00 | 0.00 | 49 | 1011.4 |
| 20260510013724 | 71 | 65 | 3.0 | 3.0 | 0.00 | 0.00 | 0.00 | 49 | 1011.4 |
| 20260510013220 | 71 | 14 | 4.0 | 4.0 | 0.00 | 0.00 | 0.00 | 50 | 1011.4 |
| 20260510012719 | 71 | 75 | 3.0 | 3.0 | 0.00 | 0.00 | 0.00 | 51 | 1011.3 |
| 20260510012215 | 71 | 58 | 0.0 | 0.0 | 0.00 | 0.00 | 0.00 | 51 | 1011.2 |
| 20260510011709 | 72 | 47 | 1.0 | 1.0 | 0.00 | 0.00 | 0.00 | 50 | 1010.8 |
| 20260510011205 | 72 | 35 | 1.0 | 1.0 | 0.00 | 0.00 | 0.00 | 49 | 1010.9 |
| 20260510010702 | 72 | 42 | 0.0 | 0.0 | 0.00 | 0.00 | 0.00 | 49 | 1010.8 |
| 20260510010159 | 73 | 40 | 0.0 | 0.0 | 0.00 | 0.00 | 0.00 | 48 | 1010.8 |
| 20260510005655 | 73 | 64 | 3.0 | 3.0 | 0.00 | 0.00 | 0.00 | 47 | 1010.8 |
| 20260510005152 | 74 | 3 | 4.0 | 4.0 | 0.00 | 0.00 | 0.00 | 46 | 1010.8 |
| 20260510004650 | 74 | 355 | 4.0 | 4.0 | 0.00 | 0.00 | 0.00 | 45 | 1010.7 |
| 20260510004148 | 74 | 8 | 5.0 | 6.0 | 0.00 | 0.00 | 0.00 | 45 | 1010.5 |
| 20260510003645 | 75 | 1 | 3.0 | 3.0 | 0.00 | 0.00 | 0.00 | 45 | 1010.5 |
| 20260510003140 | 75 | 344 | 6.0 | 8.0 | 0.00 | 0.00 | 0.00 | 43 | 1010.3 |
| 20260510002635 | 75 | 319 | 5.0 | 6.0 | 0.00 | 0.00 | 0.00 | 43 | 1010.0 |
| 20260510002132 | 75 | 351 | 6.0 | 8.0 | 0.00 | 0.00 | 0.00 | 43 | 1010.4 |
| 20260510001629 | 76 | 0 | 6.0 | 8.0 | 0.00 | 0.00 | 0.00 | 43 | 1010.2 |
| 20260510001128 | 76 | 12 | 5.0 | 7.0 | 0.00 | 0.00 | 0.00 | 43 | 1010.1 |
| 20260510000628 | 77 | 347 | 4.0 | 6.0 | 0.00 | 0.00 | 0.00 | 42 | 1010.1 |
| 20260510000126 | 76 | 355 | 5.0 | 7.0 | 0.00 | 0.00 | 0.00 | 42 | 1010.0 |
| 20260509235621 | 76 | 356 | 9.0 | 9.0 | 0.00 | 0.00 | 0.00 | 42 | 1010.1 |
| 20260509235119 | 77 | 348 | 7.0 | 10.0 | 0.00 | 0.00 | 0.00 | 41 | 1010.1 |
| 20260509234614 | 77 | 9 | 8.0 | 11.0 | 0.00 | 0.00 | 0.00 | 40 | 1009.9 |
| 20260509234113 | 78 | 4 | 8.0 | 8.0 | 0.00 | 0.00 | 0.00 | 40 | 1009.7 |
| 20260509233610 | 78 | 304 | 3.0 | 3.0 | 0.00 | 0.00 | 0.00 | 41 | 1009.6 |
| 20260509233107 | 78 | 324 | 4.0 | 4.0 | 0.00 | 0.00 | 0.00 | 39 | 1009.5 |
| 20260509232603 | 79 | 296 | 4.0 | 4.0 | 0.00 | 0.00 | 0.00 | 39 | 1009.3 |
| 20260509232100 | 79 | 269 | 6.0 | 9.0 | 0.00 | 0.00 | 0.00 | 39 | 1009.5 |
| 20260509231556 | 79 | 314 | 8.0 | 8.0 | 0.00 | 0.00 | 0.00 | 38 | 1009.5 |
| 20260509231054 | 79 | 304 | 3.0 | 3.0 | 0.00 | 0.00 | 0.00 | 40 | 1009.5 |
| 20260509230551 | 79 | 297 | 2.0 | 3.0 | 0.00 | 0.00 | 0.00 | 39 | 1009.4 |
| 20260509230048 | 79 | 302 | 3.0 | 3.0 | 0.00 | 0.00 | 0.00 | 38 | 1009.5 |
| 20260509225548 | 79 | 314 | 8.0 | 8.0 | 0.00 | 0.00 | 0.00 | 37 | 1009.4 |
| 20260509225044 | 79 | 295 | 3.0 | 3.0 | 0.00 | 0.00 | 0.00 | 37 | 1009.5 |
| 20260509224540 | 80 | 293 | 3.0 | 3.0 | 0.00 | 0.00 | 0.00 | 37 | 1009.0 |
| 20260509224037 | 80 | 308 | 3.0 | 3.0 | 0.00 | 0.00 | 0.00 | 37 | 1009.1 |
| 20260509223534 | 80 | 277 | 7.0 | 8.0 | 0.00 | 0.00 | 0.00 | 35 | 1009.2 |
| 20260509223032 | 80 | 280 | 6.0 | 7.0 | 0.00 | 0.00 | 0.00 | 35 | 1009.1 |
| 20260509222527 | 80 | 273 | 7.0 | 8.0 | 0.00 | 0.00 | 0.00 | 35 | 1009.0 |
| 20260509222023 | 81 | 275 | 4.0 | 4.0 | 0.00 | 0.00 | 0.00 | 35 | 1009.1 |
| 20260509221519 | 81 | 285 | 7.0 | 8.0 | 0.00 | 0.00 | 0.00 | 35 | 1008.9 |
| 20260509221015 | 81 | 271 | 6.0 | 8.0 | 0.00 | 0.00 | 0.00 | 36 | 1008.9 |
| 20260509220511 | 82 | 278 | 4.0 | 6.0 | 0.00 | 0.00 | 0.00 | 35 | 1009.0 |
| 20260509220008 | 82 | 270 | 6.0 | 8.0 | 0.00 | 0.00 | 0.00 | 35 | 1008.9 |
| 20260509215503 | 82 | 256 | 6.0 | 7.0 | 0.00 | 0.00 | 0.00 | 35 | 1009.0 |
| 20260509215001 | 82 | 275 | 6.0 | 8.0 | 0.00 | 0.00 | 0.00 | 35 | 1008.9 |
| 20260509214458 | 82 | 276 | 6.0 | 7.0 | 0.00 | 0.00 | 0.00 | 35 | 1008.7 |
| 20260509213954 | 82 | 289 | 6.0 | 7.0 | 0.00 | 0.00 | 0.00 | 36 | 1008.9 |
| 20260509213450 | 82 | 304 | 7.0 | 9.0 | 0.00 | 0.00 | 0.00 | 33 | 1008.9 |
| 20260509212948 | 82 | 284 | 7.0 | 8.0 | 0.00 | 0.00 | 0.00 | 34 | 1008.9 |
| 20260509212446 | 82 | 275 | 8.0 | 9.0 | 0.00 | 0.00 | 0.00 | 33 | 1009.0 |
| 20260509211942 | 82 | 261 | 11.0 | 16.0 | 0.00 | 0.00 | 0.00 | 34 | 1008.9 |
| 20260509211437 | 83 | 282 | 7.0 | 9.0 | 0.00 | 0.00 | 0.00 | 35 | 1008.9 |
| 20260509210933 | 84 | 261 | 11.0 | 13.0 | 0.00 | 0.00 | 0.00 | 32 | 1008.9 |
| 20260509210431 | 83 | 272 | 6.0 | 9.0 | 0.00 | 0.00 | 0.00 | 36 | 1008.9 |
| 20260509205926 | 83 | 274 | 9.0 | 10.0 | 0.00 | 0.00 | 0.00 | 35 | 1008.9 |
| 20260509205421 | 83 | 258 | 9.0 | 10.0 | 0.00 | 0.00 | 0.00 | 34 | 1008.9 |
| 20260509204918 | 83 | 271 | 9.0 | 13.0 | 0.00 | 0.00 | 0.00 | 35 | 1009.1 |
| 20260509204414 | 82 | 282 | 7.0 | 9.0 | 0.00 | 0.00 | 0.00 | 35 | 1009.1 |